Location: Alpine Heights
(32.8181°N, 116.7809°W)
Time: 23:35:04
(UTC+00:00)

ATLAS 2AS CENTAUR R/B - Pass Details

Date: 14 April 2021
Orbit: 949 x 1263 km, 63.7° (Epoch: 07 May)

Event Time Altitude Azimuth Distance (km) Brightness Sun altitude
Rises 12:34:14 0° 335° (NNW) 4,050 5.7 -9.8°
Reaches altitude 10° 12:37:12 10° 341° (NNW) 3,039 5.1 -9.2°
Maximum altitude 12:44:05 46° 54° (NE) 1,412 3.9 -7.8°
Drops below altitude 10° 12:50:26 10° 127° (SE) 2,810 5.5 -6.5°
Sets 12:53:04 0° 133° (SE) 3,720 6.0 -6.0°
